Location: Little Ridge
(33.0629°N, 96.4547°W)
Time: 07:05:38
(UTC+00:00)

Cosmos 2297 Rocket - Pass Details

Date: 08 December 2021
Orbit: 838 x 845 km, 71.0° (Epoch: 17 January)

Event Time Altitude Azimuth Distance (km) Brightness Sun altitude
Rises 12:27:18 0° 351° (N) 3,405 5.1 -10.3°
Reaches altitude 10° 12:30:06 10° 3° (N) 2,467 4.5 -9.8°
Maximum altitude 12:34:56 28° 62° (ENE) 1,522 4.0 -8.8°
Drops below altitude 10° 12:39:45 10° 121° (ESE) 2,459 6.3 -7.9°
Sets 12:42:31 0° 132° (SE) 3,390 6.9 -7.4°
